Time,TemperatureF,DewpointF,PressureIn,WindDirection,WindDirectionDegrees,WindSpeedMPH,WindSpeedGustMPH,Humidity,HourlyPrecipIn,Conditions,Clouds,dailyrainin,SoftwareType,DateUTC
2013-01-10 00:02:00,32.0,29.0,30.36,SW,215,2.0,7.0,88,0.00,,,-99.99,,2013-01-10 06:02:00,
2013-01-10 00:12:00,32.0,29.0,30.36,SW,215,2.0,7.0,88,0.00,,,-99.99,,2013-01-10 06:12:00,
2013-01-10 00:22:00,33.0,30.0,30.35,SW,214,3.0,7.0,88,0.00,,,-99.99,,2013-01-10 06:22:00,
2013-01-10 00:32:00,32.0,29.0,30.35,SSW,212,3.0,8.0,88,0.00,,,-99.99,,2013-01-10 06:32:00,
2013-01-10 00:42:00,32.0,29.0,30.35,SSW,212,3.0,8.0,88,0.00,,,-99.99,,2013-01-10 06:42:00,
2013-01-10 00:52:00,32.0,29.0,30.35,SSW,212,0.0,5.0,88,0.00,,,-99.99,,2013-01-10 06:52:00,
2013-01-10 01:02:00,32.0,29.0,30.34,SSW,212,2.0,5.0,88,0.00,,,-99.99,,2013-01-10 07:02:00,
2013-01-10 01:12:00,32.0,29.0,30.34,SSW,212,2.0,5.0,88,0.00,,,-99.99,,2013-01-10 07:12:00,
2013-01-10 01:22:00,32.0,29.0,30.34,SSW,212,1.0,5.0,88,0.00,,,-99.99,,2013-01-10 07:22:00,
2013-01-10 01:32:00,31.0,28.0,30.34,SSW,212,0.0,1.0,88,0.00,,,-99.99,,2013-01-10 07:32:00,
2013-01-10 01:42:00,31.0,28.0,30.34,SSW,212,0.0,1.0,88,0.00,,,-99.99,,2013-01-10 07:42:00,
2013-01-10 01:52:00,31.0,28.0,30.34,SSW,212,1.0,3.0,89,0.00,,,-99.99,,2013-01-10 07:52:00,
2013-01-10 02:01:00,31.0,28.0,30.34,SSW,212,0.0,6.0,89,0.00,,,-99.99,,2013-01-10 08:01:00,
2013-01-10 02:12:00,31.0,28.0,30.34,SSW,212,0.0,6.0,89,0.00,,,-99.99,,2013-01-10 08:12:00,
2013-01-10 02:22:00,31.0,28.0,30.33,SSW,212,1.0,5.0,89,0.00,,,-99.99,,2013-01-10 08:22:00,
2013-01-10 02:32:00,31.0,28.0,30.33,SSW,212,1.0,3.0,88,0.00,,,-99.99,,2013-01-10 08:32:00,
2013-01-10 02:42:00,31.0,28.0,30.33,SSW,212,1.0,3.0,88,0.00,,,-99.99,,2013-01-10 08:42:00,
2013-01-10 02:53:00,31.0,28.0,30.33,SSW,212,1.0,5.0,88,0.00,,,-99.99,,2013-01-10 08:53:00,
2013-01-10 03:02:00,31.0,28.0,30.33,SSW,212,1.0,6.0,88,0.00,,,-99.99,,2013-01-10 09:02:00,
2013-01-10 03:12:00,31.0,28.0,30.33,SSW,212,1.0,6.0,88,0.00,,,-99.99,,2013-01-10 09:12:00,
2013-01-10 03:22:00,31.0,28.0,30.33,SSW,212,1.0,4.0,88,0.00,,,-99.99,,2013-01-10 09:22:00,
2013-01-10 03:32:00,31.0,28.0,30.32,SSW,212,1.0,6.0,88,0.00,,,-99.99,,2013-01-10 09:32:00,
2013-01-10 03:42:00,31.0,28.0,30.32,SSW,212,1.0,6.0,88,0.00,,,-99.99,,2013-01-10 09:42:00,
2013-01-10 03:52:00,30.0,27.0,30.32,SSW,212,2.0,6.0,88,0.00,,,0.00,,2013-01-10 09:52:00,
2013-01-10 04:02:00,30.0,27.0,30.31,SSW,212,2.0,4.0,88,0.00,,,0.00,,2013-01-10 10:02:00,
2013-01-10 04:12:00,30.0,27.0,30.31,SSW,212,2.0,4.0,88,0.00,,,0.00,,2013-01-10 10:12:00,
2013-01-10 04:22:00,30.0,27.0,30.30,SSW,212,0.0,5.0,88,0.00,,,0.00,,2013-01-10 10:22:00,
2013-01-10 04:32:00,30.0,27.0,30.29,SSW,212,0.0,2.0,88,0.00,,,0.00,,2013-01-10 10:32:00,
2013-01-10 04:42:00,30.0,27.0,30.29,SSW,212,0.0,2.0,88,0.00,,,0.00,,2013-01-10 10:42:00,
2013-01-10 04:52:00,30.0,27.0,30.29,SSW,212,0.0,1.0,88,0.00,,,0.00,,2013-01-10 10:52:00,
2013-01-10 05:02:00,29.0,26.0,30.28,SSW,212,0.0,2.0,89,0.00,,,0.00,,2013-01-10 11:02:00,
2013-01-10 05:12:00,29.0,26.0,30.28,SSW,212,0.0,2.0,89,0.00,,,0.00,,2013-01-10 11:12:00,
2013-01-10 05:22:00,29.0,26.0,30.28,SSW,212,0.0,2.0,88,0.00,,,0.00,,2013-01-10 11:22:00,
2013-01-10 05:32:00,29.0,26.0,30.27,SSW,212,0.0,1.0,89,0.00,,,0.00,,2013-01-10 11:32:00,
2013-01-10 05:42:00,29.0,26.0,30.27,SSW,212,0.0,1.0,89,0.00,,,0.00,,2013-01-10 11:42:00,
2013-01-10 05:53:00,29.0,26.0,30.27,SSW,212,0.0,0.0,88,0.00,,,0.00,,2013-01-10 11:53:00,
2013-01-10 06:02:00,28.0,25.0,30.27,SSW,212,0.0,0.0,89,0.00,,,0.00,,2013-01-10 12:02:00,
2013-01-10 06:12:00,28.0,25.0,30.27,SSW,212,0.0,0.0,89,0.00,,,0.00,,2013-01-10 12:12:00,
2013-01-10 06:22:00,28.0,25.0,30.27,SSW,212,1.0,2.0,90,0.00,,,0.00,,2013-01-10 12:22:00,
2013-01-10 06:32:00,29.0,26.0,30.26,SSW,212,1.0,5.0,89,0.00,,,0.00,,2013-01-10 12:32:00,
2013-01-10 06:42:00,29.0,26.0,30.26,SSW,212,1.0,5.0,89,0.00,,,0.00,,2013-01-10 12:42:00,
2013-01-10 06:53:00,29.0,26.0,30.25,SSW,212,0.0,4.0,89,0.00,,,0.00,,2013-01-10 12:53:00,
2013-01-10 07:02:00,30.0,27.0,30.24,SSW,212,3.0,7.0,88,0.00,,,0.00,,2013-01-10 13:02:00,
2013-01-10 07:12:00,30.0,27.0,30.24,SSW,212,3.0,7.0,88,0.00,,,0.00,,2013-01-10 13:12:00,
2013-01-10 07:22:00,31.0,28.0,30.24,SSW,212,3.0,6.0,87,0.00,,,0.00,,2013-01-10 13:22:00,
2013-01-10 07:32:00,32.0,28.0,30.24,SSW,206,4.0,8.0,85,0.00,,,0.00,,2013-01-10 13:32:00,
2013-01-10 07:42:00,32.0,28.0,30.24,SSW,206,4.0,8.0,85,0.00,,,0.00,,2013-01-10 13:42:00,
2013-01-10 07:53:00,32.0,28.0,30.24,SSW,202,3.0,6.0,84,0.00,,,0.00,,2013-01-10 13:53:00,
2013-01-10 08:02:00,32.0,27.0,30.23,SSW,202,3.0,5.0,83,0.00,,,0.00,,2013-01-10 14:02:00,
2013-01-10 08:12:00,32.0,27.0,30.23,SSW,202,3.0,5.0,83,0.00,,,0.00,,2013-01-10 14:12:00,
2013-01-10 08:22:00,31.0,27.0,30.23,SSW,202,3.0,7.0,84,0.00,,,0.00,,2013-01-10 14:22:00,
2013-01-10 08:32:00,31.0,27.0,30.22,SSW,202,2.0,6.0,85,0.00,,,0.00,,2013-01-10 14:32:00,
2013-01-10 08:43:00,31.0,27.0,30.22,SSW,202,2.0,6.0,85,0.00,,,0.00,,2013-01-10 14:43:00,
2013-01-10 08:53:00,30.0,26.0,30.21,SSW,202,1.0,6.0,86,0.00,,,0.00,,2013-01-10 14:53:00,
2013-01-10 09:03:00,31.0,27.0,30.20,SSW,202,3.0,6.0,86,0.00,,,0.00,,2013-01-10 15:03:00,
2013-01-10 09:12:00,31.0,27.0,30.20,SSW,202,3.0,6.0,86,0.00,,,0.00,,2013-01-10 15:12:00,
2013-01-10 09:22:00,32.0,28.0,30.19,South,186,5.0,9.0,84,0.00,,,0.00,,2013-01-10 15:22:00,
2013-01-10 09:32:00,34.0,29.0,30.19,South,175,4.0,8.0,81,0.00,,,0.00,,2013-01-10 15:32:00,
2013-01-10 09:43:00,34.0,29.0,30.19,South,175,4.0,8.0,81,0.00,,,0.00,,2013-01-10 15:43:00,
2013-01-10 09:53:00,34.0,28.0,30.18,SSE,168,8.0,11.0,79,0.00,,,0.00,,2013-01-10 15:53:00,
2013-01-10 10:02:00,36.0,29.0,30.18,SSE,149,7.0,14.0,75,0.00,,,0.00,,2013-01-10 16:02:00,
2013-01-10 10:12:00,36.0,29.0,30.18,SSE,149,7.0,14.0,75,0.00,,,0.00,,2013-01-10 16:12:00,
2013-01-10 10:23:00,37.0,29.0,30.17,SSE,165,7.0,12.0,73,0.00,,,0.00,,2013-01-10 16:23:00,
2013-01-10 10:33:00,37.0,29.0,30.15,SSE,165,6.0,11.0,73,0.00,,,0.00,,2013-01-10 16:33:00,
2013-01-10 10:43:00,37.0,29.0,30.15,SSE,165,6.0,11.0,73,0.00,,,0.00,,2013-01-10 16:43:00,
2013-01-10 10:53:00,37.0,29.0,30.15,SSE,163,6.0,10.0,73,0.00,,,0.00,,2013-01-10 16:53:00,
2013-01-10 11:03:00,37.0,28.0,30.12,SSE,155,7.0,11.0,70,0.00,,,0.00,,2013-01-10 17:03:00,
2013-01-10 11:12:00,37.0,28.0,30.12,SSE,155,7.0,11.0,70,0.00,,,0.00,,2013-01-10 17:12:00,
2013-01-10 11:22:00,38.0,29.0,30.11,SE,146,8.0,11.0,71,0.00,,,0.00,,2013-01-10 17:22:00,
2013-01-10 11:33:00,38.0,29.0,30.09,SSE,153,7.0,12.0,69,0.00,,,0.00,,2013-01-10 17:33:00,
2013-01-10 11:42:00,38.0,29.0,30.09,SSE,153,7.0,12.0,69,0.00,,,0.00,,2013-01-10 17:42:00,
2013-01-10 11:53:00,38.0,29.0,30.08,SSE,149,8.0,12.0,70,0.00,,,0.00,,2013-01-10 17:53:00,
2013-01-10 12:03:00,39.0,28.0,30.05,SSE,148,8.0,16.0,65,0.00,,,0.00,,2013-01-10 18:03:00,
2013-01-10 12:12:00,40.0,29.0,30.04,SSE,167,7.0,15.0,64,0.00,,,0.00,,2013-01-10 18:12:00,
2013-01-10 12:23:00,40.0,29.0,30.04,SSE,167,7.0,15.0,64,0.00,,,0.00,,2013-01-10 18:23:00,
2013-01-10 12:33:00,39.0,27.0,30.01,SE,146,10.0,14.0,63,0.00,,,0.00,,2013-01-10 18:33:00,
2013-01-10 12:43:00,39.0,28.0,29.99,SE,137,8.0,14.0,65,0.00,,,0.00,,2013-01-10 18:43:00,
2013-01-10 12:53:00,39.0,28.0,29.99,SE,137,8.0,14.0,65,0.00,,,0.00,,2013-01-10 18:53:00,
2013-01-10 13:02:00,39.0,29.0,29.98,SE,139,8.0,13.0,66,0.00,,,0.00,,2013-01-10 19:02:00,
2013-01-10 13:13:00,39.0,29.0,29.97,SE,138,9.0,12.0,67,0.00,,,0.00,,2013-01-10 19:13:00,
2013-01-10 13:23:00,39.0,29.0,29.97,SE,138,9.0,12.0,67,0.00,,,0.00,,2013-01-10 19:23:00,
2013-01-10 13:33:00,39.0,28.0,29.96,SE,139,11.0,16.0,64,0.00,,,0.00,,2013-01-10 19:33:00,
2013-01-10 13:43:00,39.0,28.0,29.96,SE,139,11.0,16.0,64,0.00,,,0.00,,2013-01-10 19:43:00,
2013-01-10 13:53:00,39.0,29.0,29.96,SE,145,10.0,14.0,66,0.00,,,0.00,,2013-01-10 19:53:00,
2013-01-10 14:02:00,39.0,29.0,29.94,SE,143,11.0,15.0,68,0.00,,,0.00,,2013-01-10 20:02:00,
2013-01-10 14:12:00,39.0,30.0,29.93,SE,140,11.0,15.0,69,0.00,,,0.00,,2013-01-10 20:12:00,
2013-01-10 14:23:00,39.0,30.0,29.93,SE,140,11.0,15.0,69,0.00,,,0.00,,2013-01-10 20:23:00,
2013-01-10 14:33:00,38.0,30.0,29.92,SE,144,9.0,15.0,72,0.00,,,0.00,,2013-01-10 20:33:00,
2013-01-10 14:42:00,38.0,30.0,29.92,SE,144,9.0,15.0,72,0.00,,,0.00,,2013-01-10 20:42:00,
2013-01-10 14:53:00,38.0,30.0,29.91,SE,136,11.0,15.0,73,0.00,,,0.00,,2013-01-10 20:53:00,
2013-01-10 15:03:00,38.0,30.0,29.91,SE,143,9.0,13.0,74,0.00,,,0.00,,2013-01-10 21:03:00,
2013-01-10 15:12:00,38.0,30.0,29.90,SSE,155,10.0,15.0,74,0.00,,,0.00,,2013-01-10 21:12:00,
2013-01-10 15:23:00,38.0,30.0,29.90,SSE,155,10.0,15.0,74,0.00,,,0.00,,2013-01-10 21:23:00,
2013-01-10 15:33:00,38.0,32.0,29.90,SSE,159,8.0,20.0,79,0.00,,,0.00,,2013-01-10 21:33:00,
2013-01-10 15:42:00,38.0,32.0,29.90,SSE,159,8.0,20.0,79,0.00,,,0.00,,2013-01-10 21:42:00,
2013-01-10 15:53:00,37.0,32.0,29.90,SSE,159,9.0,16.0,82,0.00,,,0.00,,2013-01-10 21:53:00,
2013-01-10 16:03:00,36.0,33.0,29.90,SSE,161,7.0,14.0,89,0.00,,,0.00,,2013-01-10 22:03:00,
2013-01-10 16:12:00,36.0,33.0,29.90,SSE,163,6.0,14.0,90,0.00,,,0.00,,2013-01-10 22:12:00,
2013-01-10 16:25:00,36.0,33.0,29.90,SSE,163,6.0,14.0,90,0.00,,,0.00,,2013-01-10 22:25:00,
2013-01-10 16:32:00,35.0,33.0,29.89,SSE,151,7.0,12.0,93,0.00,,,0.00,,2013-01-10 22:32:00,
2013-01-10 16:43:00,35.0,33.0,29.89,SSE,151,7.0,12.0,93,0.00,,,0.00,,2013-01-10 22:43:00,
2013-01-10 17:02:00,35.0,34.0,29.88,SE,143,7.0,10.0,95,0.01,,,0.01,,2013-01-10 23:02:00,
2013-01-10 17:12:00,35.0,34.0,29.88,SSE,164,6.0,10.0,95,0.01,,,0.01,,2013-01-10 23:12:00,
2013-01-10 17:22:00,35.0,34.0,29.88,SSE,164,6.0,10.0,95,0.01,,,0.01,,2013-01-10 23:22:00,
2013-01-10 17:33:00,34.0,33.0,29.87,SSE,149,8.0,12.0,95,0.01,,,0.01,,2013-01-10 23:33:00,
2013-01-10 17:43:00,34.0,33.0,29.87,SSE,149,8.0,12.0,95,0.01,,,0.01,,2013-01-10 23:43:00,
2013-01-10 17:53:00,34.0,33.0,29.86,SSE,150,7.0,11.0,95,0.00,,,0.01,,2013-01-10 23:53:00,
2013-01-10 18:02:00,35.0,34.0,29.86,South,170,5.0,11.0,96,0.00,,,0.01,,2013-01-11 00:02:00,
2013-01-10 18:12:00,35.0,34.0,29.85,SSE,163,4.0,9.0,96,0.00,,,0.01,,2013-01-11 00:12:00,
2013-01-10 18:23:00,35.0,34.0,29.85,SSE,163,4.0,9.0,96,0.00,,,0.01,,2013-01-11 00:23:00,
2013-01-10 18:33:00,35.0,34.0,29.85,SSE,168,4.0,14.0,96,0.00,,,0.01,,2013-01-11 00:33:00,
2013-01-10 18:42:00,35.0,34.0,29.85,SSE,168,4.0,14.0,96,0.00,,,0.01,,2013-01-11 00:42:00,
2013-01-10 18:53:00,35.0,34.0,29.85,South,173,7.0,12.0,96,0.00,,,0.01,,2013-01-11 00:53:00,
2013-01-10 19:03:00,35.0,34.0,29.82,South,172,6.0,14.0,96,0.00,,,0.01,,2013-01-11 01:03:00,
2013-01-10 19:12:00,35.0,34.0,29.82,SSE,166,6.0,13.0,96,0.00,,,0.01,,2013-01-11 01:12:00,
2013-01-10 19:22:00,35.0,34.0,29.82,SSE,166,6.0,13.0,96,0.00,,,0.01,,2013-01-11 01:22:00,
2013-01-10 19:33:00,35.0,34.0,29.80,SSE,168,7.0,11.0,96,0.00,,,0.01,,2013-01-11 01:33:00,
2013-01-10 19:43:00,35.0,34.0,29.80,SSE,168,7.0,11.0,96,0.00,,,0.01,,2013-01-11 01:43:00,
2013-01-10 19:53:00,35.0,34.0,29.80,SSE,157,7.0,12.0,96,0.00,,,0.01,,2013-01-11 01:53:00,
2013-01-10 20:02:00,35.0,34.0,29.79,South,169,7.0,10.0,97,0.00,,,0.01,,2013-01-11 02:02:00,
2013-01-10 20:12:00,35.0,34.0,29.77,South,178,7.0,14.0,97,0.00,,,0.01,,2013-01-11 02:12:00,
2013-01-10 20:23:00,35.0,34.0,29.77,South,178,7.0,14.0,97,0.00,,,0.01,,2013-01-11 02:23:00,
2013-01-10 20:33:00,35.0,34.0,29.76,South,172,4.0,10.0,97,0.00,,,0.01,,2013-01-11 02:33:00,
2013-01-10 20:54:00,35.0,34.0,29.75,SSE,160,6.0,10.0,97,0.00,,,0.01,,2013-01-11 02:54:00,
2013-01-10 21:02:00,35.0,34.0,29.74,SSE,168,8.0,14.0,97,0.00,,,0.01,,2013-01-11 03:02:00,
2013-01-10 21:12:00,35.0,34.0,29.75,SSW,197,5.0,13.0,97,0.00,,,0.01,,2013-01-11 03:12:00,
2013-01-10 21:23:00,35.0,34.0,29.75,SSW,197,5.0,13.0,97,0.00,,,0.01,,2013-01-11 03:23:00,
2013-01-10 21:33:00,35.0,34.0,29.73,SSE,160,9.0,15.0,97,0.00,,,0.01,,2013-01-11 03:33:00,
2013-01-10 21:43:00,35.0,34.0,29.73,SSE,160,9.0,15.0,97,0.00,,,0.01,,2013-01-11 03:43:00,
2013-01-10 21:53:00,35.0,34.0,29.74,SSE,165,6.0,13.0,97,0.00,,,0.01,,2013-01-11 03:53:00,
2013-01-10 22:02:00,36.0,35.0,29.74,South,178,5.0,13.0,97,0.00,,,0.01,,2013-01-11 04:02:00,
2013-01-10 22:12:00,36.0,35.0,29.74,SSW,199,5.0,9.0,97,0.00,,,0.01,,2013-01-11 04:12:00,
2013-01-10 22:22:00,36.0,35.0,29.74,SSW,199,5.0,9.0,97,0.00,,,0.01,,2013-01-11 04:22:00,
2013-01-10 22:33:00,36.0,35.0,29.73,SSW,205,3.0,10.0,97,0.00,,,0.01,,2013-01-11 04:33:00,
2013-01-10 22:42:00,36.0,35.0,29.73,SSW,205,3.0,10.0,97,0.00,,,0.01,,2013-01-11 04:42:00,
2013-01-10 22:53:00,36.0,35.0,29.74,SSW,198,2.0,8.0,97,0.00,,,0.01,,2013-01-11 04:53:00,
2013-01-10 23:03:00,36.0,35.0,29.73,SSW,198,0.0,5.0,97,0.01,,,0.02,,2013-01-11 05:03:00,
2013-01-10 23:12:00,36.0,35.0,29.73,SSW,198,0.0,5.0,97,0.01,,,0.02,,2013-01-11 05:12:00,
2013-01-10 23:22:00,36.0,35.0,29.72,SSW,198,0.0,4.0,97,0.01,,,0.02,,2013-01-11 05:22:00,
2013-01-10 23:33:00,35.0,34.0,29.71,SSW,196,4.0,5.0,97,0.01,,,0.02,,2013-01-11 05:33:00,
2013-01-10 23:42:00,35.0,34.0,29.71,SSW,196,4.0,5.0,97,0.01,,,0.02,,2013-01-11 05:42:00,
2013-01-10 23:53:00,35.0,34.0,29.70,SSW,194,0.0,6.0,97,0.01,,,0.02,,2013-01-11 05:53:00,